User: anonymous
Location: Unspecified
(0.0000°N, 0.0000°E)
Time: 23:24:13
(UTC+02:00)
Language:

Cosmos 1703 - Orbit

View from above orbital plane
View from above orbital plane
View from above satellite
View from above satellite

Ground track
Ground track

The orbit data is extracted from the following two-line orbital elements,

1 16262U 85108A   14113.08119587  .00004622  00000-0  32064-3 0  4142
2 16262 082.4912 296.4027 0011156 294.4287 065.5776 15.05338589545350
Epoch (UTC): 23 April 2014 01:56:55
Eccentricity: 0.0011156
inclination: 82.4912°
perigee height: 543 km
apogee height: 558 km
right ascension of ascending node: 296.4027°
argument of perigee: 294.4287°
revolutions per day: 15.05338589
mean anomaly at epoch: 65.5776°
orbit number at epoch: 54535

The dashed part of the orbit path shows where the satellite is in the earth's shadow,  

DLR